Regional Weather Roundup
Issued by NWS

Home | Current Version | Previous Version | Text Only | Print | Product List | Glossary On
Versions: 1 2 3 4 5 6 7 8 9 10 11 12 13 14 15 16 17 18 19 20 21 22 23 24 25 26 27 28 29 30 31 32 33 34 35 36 37 38 39 40 41 42 43 44 45 46 47 48 49 50
000
ASUS43 KLMK 060602
RWRKY
KENTUCKY REGIONAL WEATHER ROUNDUP
NATIONAL WEATHER SERVICE LOUISVILLE KY
100 AM EST FRI MAR 06 2015

NOTE "FAIR" INDICATES FEW OR NO CLOUDS BELOW 12,000 FEET
WITH NO SIGNIFICANT WEATHER AND/OR OBSTRUCTIONS TO VISIBILITY.

KYZ001>023-026-027-061>063-070>075-060700-
WESTERN AND SOUTH CENTRAL KENTUCKY

CITY           SKY/WX    TMP DP  RH WIND       PRES   REMARKS
PADUCAH        PTCLDY     7   2  80 N3        30.60S
HENDERSON      PTCLDY     9  -4  56 N5        30.61S WCI   0
OWENSBORO      MOCLDY     7   1  76 CALM      30.60F
HOPKINSVILLE   MOCLDY     6   0  75 N5        30.57F WCI  -3
BOWLING GREEN  MOCLDY    14   4  64 NW3       30.57F
GLASGOW        NOT AVBL
$$

KYZ024-025-028>034-038-045-046-053-060700-
NORTH CENTRAL KENTUCKY

CITY           SKY/WX    TMP DP  RH WIND       PRES   REMARKS
LOUISVILLE/SDF PTCLDY    16   7  67 N5        30.57S WCI   9
LOUISVILLE/LOU PTCLDY    13   8  81 NW3       30.58R
FORT KNOX      PTCLDY    10   3  74 NW7       30.53S WCI  -1
$$

KYZ035>037-039>044-047>052-055>060-089>105-060700-
NORTHEAST KENTUCKY

CITY           SKY/WX    TMP DP  RH WIND       PRES   REMARKS
LEXINGTON      PTCLDY     7   3  84 E7        30.51F WCI  -5
COVINGTON      PTCLDY    10   3  73 CALM      30.53S
FRANKFORT      MOCLDY     1  -3  83 CALM      30.53S
$$

KYZ054-064>069-076>088-106>120-060700-
SOUTHEAST KENTUCKY

CITY           SKY/WX    TMP DP  RH WIND       PRES   REMARKS
JACKSON        PTCLDY    13   7  77 CALM      30.47S
LONDON         CLEAR      7   0  73 CALM      30.48F
SOMERSET       NOT AVBL
MIDDLESBORO    PTCLDY    17  11  78 NW3       30.48S
MONTICELLO     SNOW      -6 -10  83 CALM      30.53F VSB<1/4
$$



USA.gov is the U.S. government's official web portal to all federal, state and local government web resources and services.